Homer, AK

2:32 PM AKDT on May 25, 2017 (GMT -0800)
Homer

Weather History for PAHO - September, 2012

Change the Weather History Date:

Sunday, September 23, 2012

  Actual Average Record
Temperature  
Mean Temperature 50 °F -  
Max Temperature 53 °F 51 °F 64 °F (1942)
Min Temperature 48 °F 37 °F 24 °F (1948)
Degree Days  
Heating Degree Days 14    
Moisture  
Dew Point 45 °F    
Average Humidity 83    
Maximum Humidity 90    
Minimum Humidity 69    
Precipitation  
Precipitation 0.16 in - - ()
Sea Level Pressure  
Sea Level Pressure 29.52 in    
Wind  
Wind Speed 5 mph (SSW)    
Max Wind Speed 16 mph    
Max Gust Speed -    
Visibility 10 miles    
Events Rain    
Averages and records for this station are not official NWS values.
T = Trace of Precipitation, MM = Missing Value Source: NWS Daily Summary

Daily Weather History Graph

Daily Weather History Graph

Search for Another Location

Airport or City:

Trip Planner

Search our weather history database for the weather conditions in past years. The results will help you decide how hot, cold, wet, or windy it might be!

Date:

Astronomy

Sep. 23, 2012 Rise Set
Actual Time 7:54 AM AKDT 8:00 PM AKDT
Civil Twilight 7:13 AM AKDT 8:41 PM AKDT
Nautical Twilight 6:23 AM AKDT 9:30 PM AKDT
Astronomical Twilight 5:30 AM AKDT 10:23 PM AKDT
Moon 5:26 PM AKDT (9/23) No Moon Set
Length of Visible Light 13h 28m
Length of Day
12h 06m
First Quarter, 61% of the Moon is Illuminated
Sep 23
First Quarter
Sep 29
Full
Oct 7
Last Quarter
Oct 15
New
Oct 21
First Quarter

Hourly Weather History & Observations

Time (AKDT) Temp. Dew Point Humidity Pressure Visibility Wind Dir Wind Speed Gust Speed Precip Events Conditions
12:53 AM 48.9 °F 46.0 °F 90% 29.29 in 10.0 mi NNE 4.6 mph - 0.00 in   Mostly Cloudy
1:53 AM 50.0 °F 46.9 °F 89% 29.30 in 10.0 mi Calm Calm - 0.01 in   Overcast
2:53 AM 53.1 °F 45.0 °F 74% 29.31 in 10.0 mi Variable 3.5 mph - 0.00 in Rain Light Rain
3:53 AM 48.9 °F 45.0 °F 86% 29.30 in 10.0 mi Calm Calm - 0.01 in   Mostly Cloudy
4:53 AM 48.9 °F 45.0 °F 86% 29.33 in 8.0 mi ENE 8.1 mph - 0.02 in Rain Light Rain
5:53 AM 48.9 °F 46.0 °F 90% 29.34 in 10.0 mi Calm Calm - 0.05 in   Overcast
6:53 AM 50.0 °F 46.0 °F 86% 29.36 in 10.0 mi Calm Calm - 0.02 in Rain Light Rain
7:53 AM 48.9 °F 45.0 °F 86% 29.39 in 10.0 mi NE 5.8 mph - 0.01 in Rain Light Rain
8:53 AM 48.0 °F 45.0 °F 89% 29.41 in 10.0 mi East 5.8 mph - 0.01 in   Overcast
9:53 AM 50.0 °F 46.0 °F 86% 29.45 in 10.0 mi East 5.8 mph - N/A   Overcast
10:53 AM 50.0 °F 46.0 °F 86% 29.47 in 10.0 mi ENE 4.6 mph - 0.00 in Rain Light Rain
11:53 AM 51.1 °F 46.9 °F 86% 29.50 in 10.0 mi Calm Calm - 0.01 in   Overcast
12:53 PM 52.0 °F 46.9 °F 83% 29.53 in 10.0 mi Calm Calm - N/A   Overcast
1:53 PM 52.0 °F 48.0 °F 86% 29.56 in 10.0 mi ESE 3.5 mph - 0.00 in Rain Light Rain
2:53 PM 52.0 °F 48.0 °F 86% 29.59 in 10.0 mi Calm Calm - 0.01 in   Overcast
3:10 PM 51.8 °F 48.2 °F 88% 29.59 in 8.0 mi SSW 4.6 mph - N/A   Overcast
3:53 PM 52.0 °F 48.0 °F 86% 29.61 in 5.0 mi WSW 4.6 mph - 0.01 in Rain Light Rain
4:53 PM 50.0 °F 45.0 °F 83% 29.65 in 10.0 mi SW 11.5 mph - 0.00 in   Overcast
5:53 PM 48.9 °F 44.1 °F 83% 29.67 in 10.0 mi SW 15.0 mph - 0.00 in   Mostly Cloudy
6:53 PM 48.9 °F 42.1 °F 77% 29.70 in 10.0 mi WSW 12.7 mph - N/A   Overcast
7:53 PM 48.9 °F 41.0 °F 74% 29.72 in 10.0 mi SW 16.1 mph - N/A   Mostly Cloudy
8:53 PM 48.9 °F 39.9 °F 71% 29.75 in 10.0 mi WSW 15.0 mph - N/A   Mostly Cloudy
9:53 PM 48.9 °F 41.0 °F 74% 29.77 in 10.0 mi SW 12.7 mph - N/A   Overcast
10:53 PM 48.9 °F 39.0 °F 69% 29.79 in 10.0 mi SW 16.1 mph - N/A   Overcast